| time (UTC) | temp F | wind direction | speed MPH | gust MPH | rain 1hr in | rain 24hr in | rain mn in | humidity % | barometer mb |
| 20260502194511 | 77 | 349 | 3.0 | 10.0 | 0.00 | 0.05 | 0.00 | 31 | 1019.4 |
| 20260502194032 | 76 | 12 | 4.0 | 11.0 | 0.00 | 0.05 | 0.00 | 33 | 1019.4 |
| 20260502193511 | 76 | 11 | 6.0 | 16.0 | 0.00 | 0.05 | 0.00 | 32 | 1019.5 |
| 20260502193012 | 76 | 358 | 5.0 | 16.0 | 0.00 | 0.05 | 0.00 | 33 | 1019.5 |
| 20260502192512 | 76 | 355 | 3.0 | 9.0 | 0.00 | 0.05 | 0.00 | 33 | 1019.5 |
| 20260502192033 | 76 | 29 | 3.0 | 12.0 | 0.00 | 0.05 | 0.00 | 35 | 1019.7 |
| 20260502191532 | 76 | 52 | 4.0 | 12.0 | 0.00 | 0.05 | 0.00 | 33 | 1019.7 |
| 20260502191012 | 76 | 57 | 5.0 | 13.0 | 0.00 | 0.05 | 0.00 | 35 | 1019.7 |
| 20260502190532 | 75 | 44 | 4.0 | 13.0 | 0.00 | 0.06 | 0.00 | 34 | 1019.7 |
| 20260502190011 | 75 | 21 | 4.0 | 10.0 | 0.00 | 0.06 | 0.00 | 35 | 1019.7 |
| 20260502185532 | 75 | 29 | 5.0 | 12.0 | 0.00 | 0.07 | 0.00 | 33 | 1019.7 |
| 20260502185011 | 75 | 47 | 5.0 | 12.0 | 0.00 | 0.07 | 0.00 | 34 | 1019.7 |
| 20260502184511 | 75 | 37 | 4.0 | 13.0 | 0.00 | 0.07 | 0.00 | 36 | 1019.8 |
| 20260502184012 | 74 | 32 | 4.0 | 13.0 | 0.00 | 0.07 | 0.00 | 36 | 1019.8 |
| 20260502183511 | 74 | 30 | 4.0 | 12.0 | 0.00 | 0.07 | 0.00 | 32 | 1019.8 |
| 20260502183020 | 74 | 9 | 5.0 | 12.0 | 0.00 | 0.07 | 0.00 | 34 | 1019.8 |
| 20260502182544 | 74 | 18 | 4.0 | 11.0 | 0.00 | 0.07 | 0.00 | 35 | 1019.8 |
| 20260502182022 | 74 | 20 | 4.0 | 11.0 | 0.00 | 0.07 | 0.00 | 36 | 1020.0 |
| 20260502181522 | 74 | 10 | 4.0 | 9.0 | 0.00 | 0.07 | 0.00 | 34 | 1020.0 |
| 20260502180511 | 74 | 1 | 4.0 | 10.0 | 0.00 | 0.08 | 0.00 | 34 | 1020.2 |
| 20260502170512 | 72 | 72 | 3.0 | 10.0 | 0.00 | 0.13 | 0.00 | 43 | 1020.7 |
| 20260502164011 | 72 | 3 | 3.0 | 10.0 | 0.00 | 0.16 | 0.00 | 44 | 1020.8 |
| 20260502163511 | 71 | 29 | 3.0 | 7.0 | 0.00 | 0.17 | 0.00 | 46 | 1020.8 |
| 20260502163011 | 71 | 71 | 3.0 | 7.0 | 0.00 | 0.17 | 0.00 | 47 | 1020.8 |
| 20260502162511 | 70 | 86 | 3.0 | 7.0 | 0.00 | 0.18 | 0.00 | 47 | 1020.8 |
| 20260502162011 | 70 | 86 | 4.0 | 12.0 | 0.00 | 0.19 | 0.00 | 49 | 1020.8 |
| 20260502161511 | 70 | 75 | 4.0 | 12.0 | 0.00 | 0.20 | 0.00 | 45 | 1020.8 |
| 20260502161011 | 69 | 63 | 3.0 | 9.0 | 0.00 | 0.20 | 0.00 | 50 | 1020.8 |
| 20260502160533 | 69 | 38 | 4.0 | 9.0 | 0.00 | 0.21 | 0.00 | 49 | 1020.8 |
| 20260502152011 | 66 | 69 | 3.0 | 7.0 | 0.00 | 0.25 | 0.00 | 61 | 1020.5 |
| 20260502151532 | 65 | 81 | 3.0 | 10.0 | 0.00 | 0.25 | 0.00 | 63 | 1020.5 |
| 20260502151011 | 65 | 72 | 3.0 | 10.0 | 0.00 | 0.25 | 0.00 | 63 | 1020.4 |
| 20260502150511 | 64 | 53 | 3.0 | 7.0 | 0.00 | 0.25 | 0.00 | 63 | 1020.3 |
| 20260502130512 | 54 | 360 | 2.0 | 5.0 | 0.00 | 0.36 | 0.00 | 86 | 1019.5 |
| 20260502123511 | 53 | 352 | 3.0 | 6.0 | 0.00 | 0.44 | 0.00 | 87 | 1019.1 |
| 20260502123011 | 53 | 12 | 2.0 | 6.0 | 0.00 | 0.45 | 0.00 | 87 | 1018.9 |
| 20260502122511 | 53 | 359 | 2.0 | 5.0 | 0.00 | 0.46 | 0.00 | 87 | 1018.9 |
| 20260502122032 | 53 | 349 | 2.0 | 5.0 | 0.00 | 0.46 | 0.00 | 87 | 1018.7 |
| 20260502121511 | 53 | 342 | 1.0 | 5.0 | 0.00 | 0.47 | 0.00 | 87 | 1018.7 |
| 20260502121011 | 53 | 346 | 2.0 | 6.0 | 0.00 | 0.50 | 0.00 | 87 | 1018.7 |
| 20260502120511 | 53 | 355 | 2.0 | 6.0 | 0.00 | 0.54 | 0.00 | 87 | 1018.5 |
| 20260502115533 | 53 | 349 | 2.0 | 3.0 | 0.00 | 0.54 | 0.00 | 87 | 1018.2 |
| 20260502115011 | 53 | 360 | 2.0 | 4.0 | 0.00 | 0.54 | 0.00 | 87 | 1018.1 |
| 20260502114011 | 53 | 353 | 1.0 | 4.0 | 0.00 | 0.54 | 0.00 | 87 | 1018.0 |
| 20260502113511 | 53 | 342 | 1.0 | 4.0 | 0.00 | 0.54 | 0.00 | 87 | 1017.8 |
| 20260502113011 | 53 | 334 | 1.0 | 5.0 | 0.00 | 0.54 | 0.00 | 87 | 1017.8 |
| 20260502112511 | 53 | 331 | 1.0 | 5.0 | 0.00 | 0.54 | 0.00 | 87 | 1017.7 |
| 20260502112032 | 53 | 326 | 1.0 | 4.0 | 0.00 | 0.54 | 0.00 | 87 | 1017.7 |
| 20260502111511 | 54 | 331 | 2.0 | 4.0 | 0.00 | 0.54 | 0.00 | 87 | 1017.7 |
| 20260502111011 | 54 | 340 | 2.0 | 4.0 | 0.00 | 0.54 | 0.00 | 87 | 1017.6 |
| 20260502110511 | 54 | 349 | 2.0 | 4.0 | 0.00 | 0.54 | 0.00 | 87 | 1017.4 |
| 20260502110011 | 54 | 346 | 2.0 | 4.0 | 0.00 | 0.54 | 0.00 | 87 | 1017.3 |
| 20260502105511 | 54 | 338 | 2.0 | 5.0 | 0.00 | 0.54 | 0.00 | 87 | 1017.2 |
| 20260502105011 | 54 | 337 | 2.0 | 5.0 | 0.00 | 0.54 | 0.00 | 87 | 1017.2 |
| 20260502104511 | 54 | 343 | 2.0 | 6.0 | 0.00 | 0.54 | 0.00 | 87 | 1017.2 |
| 20260502104011 | 54 | 345 | 2.0 | 6.0 | 0.00 | 0.54 | 0.00 | 87 | 1017.1 |
| 20260502103511 | 54 | 342 | 2.0 | 4.0 | 0.00 | 0.54 | 0.00 | 87 | 1017.1 |
| 20260502103011 | 54 | 348 | 2.0 | 5.0 | 0.00 | 0.54 | 0.00 | 87 | 1017.1 |
| 20260502102511 | 54 | 341 | 2.0 | 5.0 | 0.00 | 0.54 | 0.00 | 87 | 1017.0 |
| 20260502102011 | 54 | 342 | 2.0 | 4.0 | 0.00 | 0.54 | 0.00 | 87 | 1016.9 |
| 20260502101511 | 54 | 359 | 1.0 | 4.0 | 0.00 | 0.54 | 0.00 | 87 | 1017.0 |
| 20260502101012 | 54 | 360 | 1.0 | 3.0 | 0.00 | 0.54 | 0.00 | 87 | 1017.0 |
| 20260502100511 | 54 | 340 | 2.0 | 4.0 | 0.00 | 0.54 | 0.00 | 87 | 1016.8 |
| 20260502091511 | 54 | 320 | 1.0 | 3.0 | 0.00 | 0.54 | 0.00 | 87 | 1016.6 |
| 20260502091011 | 54 | 329 | 1.0 | 3.0 | 0.00 | 0.54 | 0.00 | 87 | 1016.6 |
| 20260502090511 | 55 | 330 | 2.0 | 4.0 | 0.00 | 0.54 | 0.00 | 87 | 1016.6 |
| 20260502071511 | 56 | 23 | 1.0 | 4.0 | 0.00 | 0.54 | 0.00 | 87 | 1016.3 |
| 20260502071011 | 56 | 359 | 1.0 | 4.0 | 0.00 | 0.54 | 0.00 | 87 | 1016.5 |
| 20260502070511 | 56 | 337 | 1.0 | 3.0 | 0.00 | 0.54 | 0.00 | 87 | 1016.5 |
| 20260502070011 | 56 | 341 | 1.0 | 2.0 | 0.00 | 0.54 | 0.00 | 87 | 1016.6 |
| 20260502065511 | 56 | 342 | 1.0 | 2.0 | 0.00 | 0.54 | 0.00 | 87 | 1016.6 |
| 20260502065011 | 56 | 350 | 1.0 | 4.0 | 0.00 | 0.54 | 0.00 | 87 | 1016.6 |
| 20260502064511 | 56 | 355 | 1.0 | 4.0 | 0.00 | 0.54 | 0.00 | 87 | 1016.7 |
| 20260502064011 | 56 | 7 | 1.0 | 4.0 | 0.00 | 0.54 | 0.00 | 87 | 1016.7 |
| 20260502063511 | 56 | 17 | 1.0 | 4.0 | 0.00 | 0.54 | 0.00 | 87 | 1016.7 |
| 20260502063032 | 56 | 21 | 1.0 | 2.0 | 0.00 | 0.54 | 0.00 | 87 | 1016.8 |
| 20260502062511 | 56 | 9 | 1.0 | 3.0 | 0.00 | 0.54 | 0.00 | 87 | 1016.8 |
| 20260502062011 | 56 | 359 | 1.0 | 4.0 | 0.00 | 0.54 | 0.00 | 87 | 1017.0 |
| 20260502061511 | 56 | 356 | 1.0 | 4.0 | 0.00 | 0.54 | 0.00 | 87 | 1017.1 |
| 20260502061011 | 56 | 353 | 0.0 | 2.0 | 0.00 | 0.54 | 0.00 | 87 | 1017.1 |
| 20260502060511 | 56 | 352 | 0.0 | 2.0 | 0.00 | 0.54 | 0.00 | 87 | 1017.1 |
| 20260502060011 | 56 | 351 | 0.0 | 2.0 | 0.00 | 0.54 | 0.00 | 87 | 1017.1 |
| 20260502055511 | 56 | 351 | 1.0 | 3.0 | 0.00 | 0.54 | 0.00 | 87 | 1017.1 |
| 20260502055011 | 56 | 351 | 1.0 | 3.0 | 0.01 | 0.54 | 0.00 | 87 | 1017.2 |
| 20260502054511 | 56 | 351 | 0.0 | 2.0 | 0.01 | 0.54 | 0.00 | 87 | 1017.1 |
| 20260502054011 | 56 | 352 | 1.0 | 4.0 | 0.01 | 0.54 | 0.00 | 87 | 1017.1 |
| 20260502053511 | 56 | 341 | 1.0 | 4.0 | 0.01 | 0.54 | 0.00 | 87 | 1017.1 |
| 20260502053011 | 56 | 324 | 0.0 | 3.0 | 0.01 | 0.54 | 0.00 | 87 | 1016.8 |
| 20260502052511 | 56 | 0 | 0.0 | 0.0 | 0.01 | 0.54 | 0.00 | 87 | 1016.8 |
| 20260502052011 | 56 | 0 | 0.0 | 0.0 | 0.01 | 0.54 | 0.00 | 87 | 1016.9 |
| 20260502051532 | 56 | 0 | 0.0 | 0.0 | 0.01 | 0.54 | 0.00 | 87 | 1017.1 |
| 20260502051011 | 56 | 0 | 0.0 | 0.0 | 0.01 | 0.54 | 0.00 | 87 | 1017.5 |
| 20260502050511 | 56 | 0 | 0.0 | 0.0 | 0.01 | 0.54 | 0.00 | 87 | 1017.5 |
| 20260502050011 | 56 | 0 | 0.0 | 0.0 | 0.01 | 0.54 | 0.00 | 87 | 1017.2 |
| 20260502045532 | 56 | 0 | 0.0 | 0.0 | 0.01 | 0.54 | 0.54 | 87 | 1017.1 |
| 20260502045011 | 56 | 0 | 0.0 | 0.0 | 0.00 | 0.53 | 0.53 | 87 | 1017.1 |
| 20260502044511 | 56 | 0 | 0.0 | 0.0 | 0.00 | 0.53 | 0.53 | 87 | 1017.1 |
| 20260502044012 | 56 | 0 | 0.0 | 0.0 | 0.00 | 0.53 | 0.53 | 87 | 1017.2 |
| 20260502043532 | 56 | 314 | 0.0 | 1.0 | 0.00 | 0.53 | 0.53 | 87 | 1017.0 |
| 20260502043011 | 56 | 314 | 0.0 | 1.0 | 0.00 | 0.53 | 0.53 | 87 | 1017.1 |
| 20260502042511 | 56 | 314 | 0.0 | 1.0 | 0.01 | 0.53 | 0.53 | 87 | 1017.0 |
| 20260502042011 | 56 | 314 | 0.0 | 1.0 | 0.01 | 0.53 | 0.53 | 87 | 1017.0 |
| 20260502041511 | 56 | 314 | 0.0 | 1.0 | 0.01 | 0.53 | 0.53 | 86 | 1016.7 |
| 20260502041011 | 56 | 314 | 0.0 | 1.0 | 0.01 | 0.53 | 0.53 | 87 | 1016.6 |
| 20260502040511 | 56 | 314 | 0.0 | 1.0 | 0.01 | 0.53 | 0.53 | 86 | 1016.7 |
| 20260502040011 | 56 | 314 | 0.0 | 2.0 | 0.01 | 0.53 | 0.53 | 86 | 1016.9 |
| 20260502035532 | 56 | 314 | 0.0 | 2.0 | 0.01 | 0.53 | 0.53 | 87 | 1017.0 |
| 20260502035011 | 56 | 313 | 0.0 | 1.0 | 0.01 | 0.53 | 0.53 | 86 | 1017.3 |
| 20260502034532 | 56 | 313 | 0.0 | 3.0 | 0.01 | 0.53 | 0.53 | 86 | 1017.6 |
| 20260502034011 | 56 | 312 | 1.0 | 3.0 | 0.01 | 0.53 | 0.53 | 86 | 1017.2 |
| 20260502033511 | 56 | 320 | 1.0 | 3.0 | 0.01 | 0.53 | 0.53 | 86 | 1017.2 |
| 20260502033011 | 56 | 332 | 1.0 | 3.0 | 0.01 | 0.53 | 0.53 | 86 | 1017.6 |
| 20260502032511 | 56 | 348 | 0.0 | 2.0 | 0.00 | 0.52 | 0.52 | 86 | 1017.1 |
| 20260502032011 | 56 | 346 | 0.0 | 1.0 | 0.00 | 0.52 | 0.52 | 86 | 1017.0 |
| 20260502031532 | 56 | 346 | 0.0 | 1.0 | 0.00 | 0.52 | 0.52 | 86 | 1017.1 |
| 20260502031011 | 56 | 346 | 0.0 | 1.0 | 0.00 | 0.52 | 0.52 | 86 | 1016.9 |
| 20260502030511 | 56 | 346 | 0.0 | 2.0 | 0.00 | 0.52 | 0.52 | 86 | 1016.6 |
| 20260502030011 | 56 | 346 | 0.0 | 2.0 | 0.00 | 0.52 | 0.52 | 86 | 1016.5 |
| 20260502025511 | 56 | 346 | 0.0 | 1.0 | 0.01 | 0.52 | 0.52 | 86 | 1016.3 |
| 20260502025032 | 56 | 346 | 0.0 | 1.0 | 0.01 | 0.52 | 0.52 | 86 | 1016.3 |
| 20260502024511 | 56 | 346 | 0.0 | 2.0 | 0.01 | 0.52 | 0.52 | 86 | 1016.3 |
| 20260502024011 | 56 | 346 | 1.0 | 2.0 | 0.01 | 0.52 | 0.52 | 86 | 1016.4 |
| 20260502023511 | 56 | 346 | 0.0 | 2.0 | 0.01 | 0.52 | 0.52 | 85 | 1016.1 |
| 20260502023011 | 56 | 346 | 0.0 | 1.0 | 0.01 | 0.52 | 0.52 | 86 | 1015.8 |
| 20260502022511 | 56 | 0 | 0.0 | 0.0 | 0.01 | 0.52 | 0.52 | 85 | 1015.5 |
| 20260502022011 | 56 | 0 | 0.0 | 0.0 | 0.02 | 0.52 | 0.52 | 85 | 1015.5 |
| 20260502021511 | 56 | 0 | 0.0 | 0.0 | 0.02 | 0.52 | 0.52 | 85 | 1015.6 |
| 20260502021011 | 57 | 0 | 0.0 | 0.0 | 0.02 | 0.52 | 0.52 | 85 | 1015.5 |
| 20260502020511 | 57 | 0 | 0.0 | 0.0 | 0.02 | 0.52 | 0.52 | 85 | 1015.4 |
| 20260502020011 | 57 | 0 | 0.0 | 0.0 | 0.02 | 0.52 | 0.52 | 86 | 1015.3 |
| 20260502015532 | 57 | 0 | 0.0 | 0.0 | 0.01 | 0.51 | 0.51 | 86 | 1015.5 |
| 20260502015011 | 57 | 48 | 0.0 | 2.0 | 0.01 | 0.51 | 0.51 | 86 | 1015.2 |
| 20260502014511 | 57 | 48 | 0.0 | 2.0 | 0.01 | 0.51 | 0.51 | 86 | 1015.4 |
| 20260502014032 | 57 | 49 | 0.0 | 2.0 | 0.01 | 0.52 | 0.51 | 86 | 1015.2 |
| 20260502013532 | 57 | 49 | 0.0 | 1.0 | 0.01 | 0.52 | 0.51 | 86 | 1015.2 |
| 20260502013011 | 57 | 49 | 0.0 | 2.0 | 0.01 | 0.52 | 0.51 | 85 | 1015.2 |
| 20260502012511 | 57 | 49 | 0.0 | 2.0 | 0.01 | 0.52 | 0.51 | 85 | 1015.1 |
| 20260502012011 | 57 | 0 | 0.0 | 0.0 | 0.00 | 0.52 | 0.50 | 85 | 1015.3 |
| 20260502011511 | 57 | 0 | 0.0 | 0.0 | 0.00 | 0.52 | 0.50 | 85 | 1015.3 |
| 20260502011011 | 57 | 63 | 0.0 | 1.0 | 0.00 | 0.52 | 0.50 | 85 | 1015.2 |
| 20260502010511 | 57 | 63 | 0.0 | 1.0 | 0.00 | 0.52 | 0.50 | 85 | 1015.3 |
| 20260502010011 | 57 | 63 | 0.0 | 1.0 | 0.00 | 0.53 | 0.50 | 85 | 1015.5 |
| 20260502005512 | 57 | 0 | 0.0 | 0.0 | 0.00 | 0.53 | 0.50 | 85 | 1016.0 |
| 20260502005032 | 57 | 0 | 0.0 | 0.0 | 0.00 | 0.53 | 0.50 | 85 | 1016.1 |
| 20260502004511 | 57 | 0 | 0.0 | 0.0 | 0.00 | 0.53 | 0.50 | 85 | 1016.1 |
| 20260502004011 | 57 | 0 | 0.0 | 0.0 | 0.00 | 0.54 | 0.50 | 85 | 1016.1 |
| 20260502003511 | 57 | 0 | 0.0 | 0.0 | 0.00 | 0.54 | 0.50 | 85 | 1016.1 |
| 20260502003011 | 57 | 0 | 0.0 | 0.0 | 0.00 | 0.54 | 0.50 | 85 | 1016.0 |
| 20260502002532 | 58 | 0 | 0.0 | 0.0 | 0.00 | 0.55 | 0.50 | 84 | 1016.1 |
| 20260502002011 | 58 | 0 | 0.0 | 0.0 | 0.00 | 0.55 | 0.50 | 84 | 1016.0 |
| 20260502001511 | 58 | 0 | 0.0 | 0.0 | 0.00 | 0.56 | 0.50 | 84 | 1016.0 |
| 20260502001032 | 58 | 63 | 0.0 | 1.0 | 0.00 | 0.56 | 0.50 | 84 | 1015.9 |
| 20260502000511 | 58 | 63 | 0.0 | 1.0 | 0.00 | 0.57 | 0.50 | 84 | 1015.8 |
| 20260502000011 | 58 | 0 | 0.0 | 0.0 | 0.00 | 0.57 | 0.50 | 84 | 1015.8 |
| 20260501235511 | 58 | 0 | 0.0 | 0.0 | 0.00 | 0.57 | 0.50 | 84 | 1015.6 |
| 20260501235011 | 58 | 0 | 0.0 | 0.0 | 0.00 | 0.57 | 0.50 | 84 | 1015.5 |
| 20260501234532 | 58 | 0 | 0.0 | 0.0 | 0.00 | 0.58 | 0.50 | 84 | 1015.7 |
| 20260501234011 | 58 | 0 | 0.0 | 0.0 | 0.00 | 0.58 | 0.50 | 84 | 1015.8 |
| 20260501233532 | 58 | 45 | 0.0 | 1.0 | 0.00 | 0.58 | 0.50 | 84 | 1015.7 |
| 20260501233011 | 58 | 45 | 0.0 | 1.0 | 0.00 | 0.59 | 0.50 | 84 | 1015.7 |
| 20260501232511 | 58 | 0 | 0.0 | 0.0 | 0.00 | 0.59 | 0.50 | 84 | 1015.6 |
| 20260501232011 | 58 | 0 | 0.0 | 0.0 | 0.00 | 0.60 | 0.50 | 84 | 1015.5 |
| 20260501231511 | 58 | 45 | 0.0 | 1.0 | 0.00 | 0.60 | 0.50 | 84 | 1015.5 |
| 20260501231011 | 58 | 45 | 0.0 | 1.0 | 0.00 | 0.61 | 0.50 | 84 | 1015.5 |
| 20260501230511 | 58 | 56 | 0.0 | 1.0 | 0.00 | 0.61 | 0.50 | 84 | 1015.4 |
| 20260501230011 | 58 | 56 | 0.0 | 1.0 | 0.00 | 0.61 | 0.50 | 84 | 1015.5 |
| 20260501225511 | 58 | 56 | 0.0 | 3.0 | 0.00 | 0.62 | 0.50 | 84 | 1015.1 |
| 20260501225011 | 58 | 56 | 1.0 | 3.0 | 0.00 | 0.62 | 0.50 | 84 | 1015.0 |
| 20260501224511 | 58 | 62 | 1.0 | 4.0 | 0.00 | 0.63 | 0.50 | 84 | 1015.1 |
| 20260501224011 | 58 | 79 | 1.0 | 4.0 | 0.00 | 0.63 | 0.50 | 84 | 1015.1 |
| 20260501223511 | 58 | 75 | 1.0 | 5.0 | 0.00 | 0.64 | 0.50 | 84 | 1014.9 |
| 20260501223032 | 58 | 66 | 2.0 | 6.0 | 0.00 | 0.64 | 0.50 | 84 | 1014.8 |
| 20260501222511 | 58 | 70 | 2.0 | 10.0 | 0.00 | 0.65 | 0.50 | 85 | 1014.6 |
| 20260501222011 | 59 | 73 | 2.0 | 9.0 | 0.00 | 0.66 | 0.50 | 85 | 1014.0 |
| 20260501221511 | 58 | 69 | 1.0 | 6.0 | 0.00 | 0.67 | 0.50 | 86 | 1013.9 |
| 20260501221011 | 59 | 66 | 2.0 | 10.0 | 0.00 | 0.70 | 0.50 | 86 | 1014.0 |
| 20260501220532 | 59 | 63 | 3.0 | 10.0 | 0.00 | 0.70 | 0.50 | 86 | 1014.0 |
| 20260501215511 | 59 | 66 | 4.0 | 11.0 | 0.00 | 0.70 | 0.50 | 86 | 1013.5 |
| 20260501215011 | 59 | 70 | 4.0 | 11.0 | 0.00 | 0.70 | 0.50 | 86 | 1013.1 |
| 20260501214511 | 59 | 76 | 3.0 | 11.0 | 0.00 | 0.70 | 0.50 | 87 | 1013.0 |
| 20260501214011 | 59 | 57 | 3.0 | 7.0 | 0.00 | 0.70 | 0.50 | 87 | 1013.4 |
| 20260501213511 | 59 | 42 | 3.0 | 8.0 | 0.00 | 0.70 | 0.50 | 87 | 1013.4 |
| 20260501213011 | 59 | 58 | 2.0 | 8.0 | 0.00 | 0.70 | 0.50 | 87 | 1013.4 |
| 20260501212532 | 59 | 97 | 3.0 | 9.0 | 0.00 | 0.70 | 0.50 | 87 | 1013.0 |
| 20260501212011 | 59 | 97 | 3.0 | 9.0 | 0.01 | 0.70 | 0.50 | 87 | 1012.5 |
| 20260501211512 | 59 | 87 | 3.0 | 10.0 | 0.01 | 0.70 | 0.50 | 87 | 1012.8 |
| 20260501211011 | 59 | 86 | 4.0 | 12.0 | 0.01 | 0.70 | 0.50 | 88 | 1013.0 |
| 20260501210511 | 59 | 86 | 4.0 | 12.0 | 0.01 | 0.70 | 0.50 | 88 | 1013.0 |
| 20260501210011 | 59 | 85 | 4.0 | 10.0 | 0.01 | 0.70 | 0.50 | 88 | 1013.1 |
| 20260501205511 | 59 | 82 | 3.0 | 9.0 | 0.01 | 0.70 | 0.50 | 88 | 1013.4 |
| 20260501205011 | 59 | 77 | 3.0 | 9.0 | 0.01 | 0.70 | 0.50 | 88 | 1013.5 |
| 20260501204511 | 59 | 84 | 3.0 | 8.0 | 0.01 | 0.70 | 0.50 | 88 | 1013.8 |
| 20260501204011 | 59 | 99 | 2.0 | 7.0 | 0.01 | 0.70 | 0.50 | 88 | 1014.0 |
| 20260501203511 | 59 | 105 | 2.0 | 9.0 | 0.01 | 0.70 | 0.50 | 88 | 1014.1 |
| 20260501203011 | 58 | 97 | 2.0 | 9.0 | 0.01 | 0.70 | 0.50 | 88 | 1014.5 |
| 20260501202511 | 58 | 95 | 3.0 | 6.0 | 0.01 | 0.70 | 0.50 | 88 | 1014.5 |
| 20260501202032 | 58 | 97 | 3.0 | 6.0 | 0.00 | 0.69 | 0.49 | 88 | 1014.6 |
| 20260501201511 | 58 | 92 | 3.0 | 9.0 | 0.00 | 0.69 | 0.49 | 88 | 1014.9 |
| 20260501201011 | 58 | 96 | 3.0 | 9.0 | 0.00 | 0.69 | 0.49 | 88 | 1015.0 |
| 20260501200511 | 58 | 105 | 2.0 | 7.0 | 0.01 | 0.69 | 0.49 | 88 | 1015.0 |
| 20260501200011 | 58 | 102 | 2.0 | 7.0 | 0.01 | 0.69 | 0.49 | 88 | 1015.1 |
| 20260501195511 | 58 | 100 | 2.0 | 7.0 | 0.02 | 0.69 | 0.49 | 88 | 1015.2 |
| 20260501195011 | 58 | 90 | 2.0 | 5.0 | 0.02 | 0.69 | 0.49 | 88 | 1015.2 |